Theta_e
297 288 282 285 287 288 287 286 285 289 287 285 285 286 289 291 291 288 290 291 294 297 298 295 292 290 288 287 287 287 286 286 286 284 283 283 283 284 285 286 287 287 287 288
291 283 287 289 289 288 287 284 284 286 287 285 284 284 288 287 286 287 288 289 292 296 295 293 290 289 288 287 287 286 286 286 285 285 284 283 283 284 285 286 286 286 286 286
286 286 289 288 287 286 285 281 280 280 285 286 284 284 287 286 287 288 289 290 291 292 294 292 290 289 287 286 286 286 286 286 285 285 285 284 284 283 283 283 284 284 285 285
286 288 287 286 285 285 281 285 284 282 280 278 283 277 287 285 285 285 287 287 288 290 293 294 292 289 288 287 285 285 286 286 286 285 284 282 280 280 281 282 283 283 284 283
284 285 283 283 283 285 284 285 282 281 278 278 279 275 286 284 284 286 285 286 287 288 291 291 290 290 288 286 284 285 285 286 286 285 283 281 280 281 281 281 280 281 282 283
284 288 285 283 285 285 286 283 282 280 280 279 273 275 280 284 284 285 286 286 287 287 287 289 289 288 285 285 284 284 285 285 285 283 282 280 279 279 278 278 278 279 280 280
286 283 285 285 282 285 284 282 279 277 278 278 269 274 281 286 286 285 285 285 285 285 286 287 286 285 284 283 284 285 284 282 282 281 280 279 279 278 277 277 277 277 277 278
278 278 281 284 281 279 279 278 277 269 274 275 269 273 283 285 285 286 286 285 286 285 286 285 285 284 283 283 283 281 280 279 280 279 278 278 278 277 277 277 277 276 276 277
279 281 282 282 283 281 280 280 277 273 266 269 277 283 288 283 284 285 284 285 284 284 283 284 283 282 282 281 279 279 278 278 278 277 277 277 277 277 276 276 276 276 276 276
279 277 281 281 282 281 281 280 278 278 271 269 277 276 280 282 280 281 284 283 282 281 281 281 280 280 280 279 278 278 277 276 276 276 276 276 276 276 275 275 274 274 274 274
281 279 281 279 277 279 277 278 278 278 277 272 272 278 286 280 280 277 278 281 275 275 277 277 278 279 278 278 277 276 275 275 275 275 275 274 274 274 274 273 273 272 272 272
281 280 275 281 281 281 279 280 281 276 274 275 274 276 281 279 278 277 278 280 276 274 275 276 277 277 277 276 275 274 274 274 274 273 273 273 273 272 271 271 271 271 270 269
282 279 274 283 279 279 277 279 280 276 277 272 272 278 278 277 276 277 275 273 273 273 273 274 275 275 274 274 273 273 273 273 273 272 272 271 270 270 269 269 269 268 268 267
285 281 278 280 282 279 277 278 279 276 273 275 277 281 286 286 281 280 274 271 271 271 271 271 272 273 273 273 271 272 272 272 272 271 271 269 269 269 268 268 267 267 266 266
283 274 277 278 279 277 279 278 277 275 278 273 282 278 284 286 284 277 271 271 273 271 272 271 269 269 268 268 268 269 269 271 270 269 268 267 268 268 267 266 265 265 265 265
281 274 272 273 279 278 275 278 278 278 279 277 279 278 285 281 272 272 273 273 274 271 270 268 267 268 267 267 267 270 265 266 267 265 265 265 265 266 264 264 264 264 264 264
277 275 271 272 274 274 275 277 277 276 276 276 274 283 276 276 277 274 273 274 273 270 268 266 266 265 265 266 266 263 262 262 261 261 262 262 263 263 262 262 262 262 262 263
272 272 272 271 272 272 286 283 282 280 280 279 280 282 280 283 279 277 276 273 270 268 268 267 267 265 266 265 262 260 260 262 258 260 258 259 261 261 261 261 261 261 262 262
280 275 271 269 269 279 283 278 277 277 278 283 280 282 283 279 276 275 275 275 274 272 271 269 267 265 266 264 262 260 261 259 260 258 259 258 260 261 260 260 260 262 262 261
276 275 275 270 269 275 285 276 278 279 279 279 280 281 280 279 276 277 274 275 273 273 272 272 271 271 270 270 269 268 264 262 264 263 262 261 261 260 259 260 261 262 262 262
273 275 273 274 274 278 285 278 280 280 287 280 283 282 280 279 280 275 275 273 273 272 271 271 270 270 269 269 268 267 266 264 265 265 263 262 261 260 261 262 262 261 261 262
279 275 274 276 275 276 281 279 285 290 283 282 281 281 282 282 275 274 273 273 272 270 270 270 269 268 269 269 267 265 264 265 264 263 261 261 261 262 263 262 262 262 262 261
280 286 285 283 283 287 282 288 288 285 286 281 282 282 281 276 274 273 271 271 270 270 270 269 267 267 267 267 266 263 263 263 262 260 259 260 261 263 263 262 262 261 262 261
280 282 282 284 292 290 291 289 289 287 284 282 281 279 278 276 274 272 271 270 270 269 267 265 263 263 264 265 265 262 262 261 259 258 259 260 261 261 261 262 262 261 261 261
285 282 283 284 289 290 291 293 294 288 282 279 278 277 277 275 273 272 271 269 269 268 265 264 262 262 262 262 261 258 260 259 258 259 259 259 260 259 260 261 261 262 263 264
283 287 285 289 297 295 294 285 283 282 279 277 275 274 274 274 272 271 269 269 268 266 265 264 264 262 262 261 260 260 260 259 258 258 258 258 259 259 260 259 259 264 266 267
Wind_Speed
6 10 5 5 5 5 6 7 9 7 4 7 8 19 19 12 9 8 8 8 7 10 9 9 8 5 4 4 2 4 5 4 4 3 3 3 4 4 4 5 7 5 5 5
7 5 4 5 5 6 6 7 7 6 2 6 9 23 17 2 3 4 4 7 7 6 8 8 7 6 6 4 1 1 3 4 4 3 3 3 4 4 5 4 5 8 6 7
7 3 3 3 4 7 1 2 4 6 12 6 10 10 3 0 2 4 7 7 7 2 7 7 8 8 5 4 3 2 3 4 3 4 4 4 5 5 4 6 7 5 9 10
5 2 2 5 2 4 4 6 6 8 6 4 6 7 7 3 2 1 2 2 5 5 2 4 6 7 7 5 6 3 2 5 5 6 5 6 5 7 6 8 7 9 11 10
0 4 4 2 3 3 3 5 4 2 3 6 3 3 10 1 2 4 4 3 4 5 2 5 4 3 6 7 5 4 3 4 6 6 6 4 6 6 7 8 11 10 10 10
3 1 4 5 4 3 9 4 2 1 2 3 3 4 9 2 1 3 4 6 6 8 5 5 7 7 6 5 4 2 2 3 6 7 7 7 8 9 9 10 9 9 9 10
2 3 3 2 3 3 3 5 5 7 5 6 3 2 13 6 5 4 6 7 8 7 7 5 5 4 4 1 5 5 8 7 6 7 7 8 9 10 11 12 10 13 10 10
4 6 2 5 3 1 3 2 4 4 4 6 1 8 8 3 5 5 6 6 5 9 8 8 8 7 8 8 9 8 6 6 7 7 7 8 9 7 9 10 11 10 11 11
5 5 2 3 3 1 2 1 1 0 2 3 5 7 8 4 6 7 6 6 9 9 8 9 9 9 7 7 6 7 7 7 7 7 7 10 10 11 11 14 12 10 13 12
1 5 1 2 2 2 1 1 3 2 7 8 6 5 8 3 1 4 6 5 6 6 7 7 6 6 6 5 6 7 7 7 7 9 9 10 12 12 13 13 14 15 14 16
2 3 4 3 3 4 1 1 3 1 3 4 7 8 5 4 5 5 2 2 2 2 4 4 4 4 5 7 7 6 7 8 9 10 10 11 12 13 13 13 14 14 16 16
1 1 5 7 3 3 1 2 5 5 6 5 3 14 2 5 7 5 3 2 4 2 3 3 5 6 5 7 7 7 8 8 9 10 11 12 13 13 13 13 14 15 16 16
2 2 5 6 1 1 3 5 4 1 1 7 3 11 1 2 2 3 2 1 3 2 2 3 4 5 5 5 6 6 8 9 9 10 11 12 12 12 13 14 14 16 15 16
1 2 7 7 7 1 4 6 6 6 3 4 17 25 21 13 4 3 2 3 4 2 3 2 1 2 4 4 5 5 7 8 10 10 11 12 12 13 13 13 15 15 15 15
3 4 3 7 13 6 16 15 9 13 15 8 25 11 25 16 14 5 4 4 5 5 3 2 1 2 3 4 4 5 4 7 9 10 10 11 12 13 13 14 14 14 14 14
1 3 3 9 4 4 11 10 10 17 19 16 27 31 21 8 2 2 5 4 4 4 2 1 2 3 4 5 5 5 4 5 5 6 8 8 10 12 12 13 14 14 14 14
4 3 1 8 4 10 9 12 9 7 7 8 8 12 3 2 4 4 4 5 5 3 1 1 3 3 5 6 5 4 6 5 5 6 6 6 8 11 12 12 13 13 14 14
4 2 2 6 6 2 8 3 5 12 11 15 14 15 3 4 2 3 4 4 4 3 2 3 4 4 6 5 4 4 5 5 5 7 6 5 8 11 12 12 12 13 12 13
3 1 3 1 3 11 11 4 6 7 10 13 10 9 4 1 2 5 5 3 5 5 4 4 4 3 4 3 4 4 5 4 5 6 6 5 8 12 12 13 13 12 12 13
2 2 2 2 3 8 4 3 3 4 9 6 8 7 5 4 4 3 8 6 5 4 4 3 4 4 5 7 8 9 6 5 8 10 10 9 11 11 12 13 13 12 11 13
4 2 6 5 7 14 9 9 5 2 9 7 6 7 7 6 5 6 8 6 5 5 3 4 5 5 6 7 8 9 10 10 11 12 12 12 12 12 12 12 10 12 12 12
13 12 8 4 6 14 11 5 8 5 3 5 6 6 6 5 8 9 8 7 5 5 4 4 5 5 6 7 8 9 9 10 11 12 13 13 13 11 11 12 12 12 12 12
4 13 9 15 15 2 15 6 7 6 8 6 6 7 9 10 9 10 8 7 6 5 3 4 4 6 6 6 7 8 9 10 11 12 12 13 13 12 11 13 13 11 11 10
7 4 5 2 19 25 16 14 15 10 12 7 6 7 9 8 11 9 8 7 5 4 2 1 2 5 7 6 8 5 8 8 10 11 13 12 12 12 11 10 10 10 10 10
7 9 8 17 29 18 20 22 17 5 5 5 4 5 7 11 11 10 9 7 5 4 2 1 1 3 5 5 6 5 6 6 9 11 11 11 9 11 11 10 10 10 10 14
9 15 11 21 28 14 14 3 4 6 6 8 8 6 6 8 12 11 8 7 5 4 2 1 1 3 5 5 7 7 6 8 10 11 10 10 10 10 10 10 11 18 22 25
Wind_Direction
28 60 45 7 10 312 292 300 294 293 45 339 259 274 283 272 255 212 224 236 234 181 166 152 156 167 210 237 281 334 17 5 17 359 359 330 320 315 308 302 297 340 323 310
42 63 9 314 285 297 285 298 301 314 75 344 305 297 288 359 342 0 321 205 240 158 149 150 151 183 214 241 278 334 3 15 360 7 335 309 313 303 299 300 343 327 312 307
88 73 292 285 13 353 284 311 355 288 322 258 300 286 160 220 327 3 340 342 347 156 176 161 173 202 193 204 219 64 1 359 343 351 342 329 323 312 313 327 313 311 313 307
78 178 303 314 74 340 305 31 338 313 5 306 32 286 315 157 190 172 342 299 294 307 146 148 182 179 183 182 111 86 352 346 339 2 340 333 314 311 313 310 310 314 309 314
29 6 3 344 14 3 301 341 302 359 348 359 14 56 271 107 142 96 111 178 223 217 219 173 175 111 95 94 87 50 346 347 352 355 347 322 310 310 311 313 312 313 312 306
85 77 23 350 307 236 303 328 229 296 198 4 251 94 285 32 22 122 126 92 50 18 38 62 81 85 89 85 112 229 341 358 4 357 340 334 324 317 321 318 317 314 315 312
332 87 107 321 312 200 295 14 340 356 359 231 301 347 247 284 58 69 71 55 41 21 27 37 35 73 108 69 47 21 30 11 357 348 346 335 321 327 323 322 317 316 313 310
51 330 23 341 56 270 351 99 128 282 296 279 316 234 258 130 109 90 85 85 63 52 36 37 43 50 49 39 37 34 12 357 354 350 334 338 334 329 322 319 318 310 308 311
18 272 115 39 348 25 334 65 40 241 84 41 236 281 300 52 42 69 68 69 65 51 27 20 45 47 40 44 35 23 12 357 352 345 343 336 335 327 324 318 314 316 319 321
79 303 184 169 239 94 95 325 35 341 335 308 283 273 246 277 51 341 61 46 40 36 30 40 42 40 38 41 36 17 5 355 350 354 345 336 329 329 325 326 325 328 327 326
111 115 287 103 196 164 42 30 39 119 152 221 297 258 225 181 181 169 254 103 103 50 64 45 53 39 44 43 24 355 5 354 358 347 341 331 332 331 330 331 330 332 327 328
111 106 272 243 93 44 319 201 187 141 260 228 194 271 3 176 179 170 211 161 103 115 96 22 39 34 31 30 4 1 355 357 352 346 332 334 331 332 334 332 332 329 332 325
144 274 328 320 9 135 196 200 178 112 95 214 185 260 224 259 218 249 219 92 84 120 75 60 26 17 24 13 349 353 345 354 341 334 335 331 331 333 332 332 330 331 326 322
23 256 203 220 232 118 253 198 204 161 203 229 236 272 276 272 266 337 160 162 155 159 168 103 6 16 8 350 331 333 337 335 336 330 330 329 329 328 332 328 329 327 323 326
153 235 304 261 273 261 267 260 209 206 229 222 271 271 274 295 309 284 180 187 160 194 155 149 329 349 334 327 310 317 309 326 326 323 323 321 321 326 322 326 325 320 323 319
103 275 19 292 288 278 276 258 230 235 252 254 262 274 280 286 109 255 209 181 188 178 141 78 358 332 305 281 279 298 302 298 308 304 311 307 318 318 323 322 320 319 318 318
156 170 63 263 341 335 296 245 181 212 210 174 214 248 167 275 254 239 211 202 186 137 142 283 274 263 274 280 268 295 283 286 297 295 300 308 311 317 318 317 315 315 315 317
137 141 150 283 338 326 247 205 186 198 242 215 262 276 278 254 233 221 221 173 157 148 197 247 251 264 272 267 311 284 298 295 293 295 296 301 312 314 315 313 310 309 311 316
13 171 282 259 247 276 283 193 160 183 256 237 223 252 230 117 256 233 163 140 158 181 196 221 212 231 293 337 297 317 317 310 307 309 305 307 315 314 314 310 309 309 313 310
45 43 153 132 231 269 239 171 141 133 274 172 155 186 192 79 283 261 159 155 141 108 71 33 8 350 357 350 341 331 326 329 332 329 325 325 316 312 308 303 306 311 307 304
145 166 224 229 253 275 265 157 155 123 300 184 191 191 162 195 203 131 128 121 113 98 73 46 8 358 355 346 344 329 334 331 333 328 323 319 314 307 303 302 310 306 308 307
168 166 204 201 229 276 140 91 188 230 230 181 194 212 193 192 147 148 147 140 129 103 61 29 5 348 343 354 341 327 327 331 326 323 317 314 310 310 309 309 308 311 310 311
243 200 194 192 220 201 191 220 218 189 239 196 195 198 187 162 170 157 144 135 113 99 66 38 359 330 336 348 336 326 321 325 323 315 312 311 311 310 317 312 312 312 313 311
252 173 234 352 242 246 237 240 247 223 227 182 180 181 169 163 151 132 124 125 124 114 95 70 347 328 319 331 330 306 316 324 313 309 313 312 314 319 317 311 308 312 310 311
180 144 203 252 271 287 270 263 276 288 136 124 122 155 155 139 138 133 129 131 127 132 125 94 339 301 308 315 312 304 316 313 311 313 312 314 316 316 316 309 312 312 312 312
180 213 217 248 259 254 282 160 136 177 193 165 146 123 113 132 134 126 127 122 131 135 123 40 323 304 303 317 310 312 320 315 316 316 319 317 316 317 316 317 312 312 320 323